Home   Weather   Auckland   Past weeks

Flag for New Zealand Past Weather in Auckland, New Zealand — Yesterday and Last 2 Weeks

Now
64 °F

Scattered clouds.


Feels Like: 64 °F
Forecast: 61 / 72 °F
Wind: 13 mph from Southwest

Location: Auckland Airport

Current Time: Jan 17, 2017 at 8:39:03 am

Latest Report: Jan 17, 2017 at 8:00 am


Visibility: N/A

Pressure: 30.01 "Hg

Humidity: 68%

Dew Point: 54 °F

Location of AucklandLocation

Past Weather in Auckland — Graph

°F

Auckland Temperature Yesterday

Maximum temperature yesterday: 72 °F (at 1:00 pm)
Minimum temperature yesterday: 63 °F (at 12:00 am)
Average temperature yesterday: 66 °F

High & Low Weather Summary for the Past Weeks

 TemperatureHumidityPressure
High77 °F (Jan 3, 3:30 pm)100% (Jan 3, 8:30 am)30.09 "Hg (Jan 3, 8:30 am)
Low50 °F (Jan 6, 5:00 am)40% (Jan 5, 10:00 am)29.71 "Hg (Jan 15, 2:30 pm)
Average66 °F73%29.90 "Hg
* Reported Jan 2 7:00 am — Jan 17 7:00 am, Auckland, Weather by CustomWeather, © 2017

Note: Actual official high and low records may vary slightly from our data, if they occured in-between our weather recording intervals... More about our weather records

Advertising

Auckland Weather History for the Previous 24 Hours

Scroll right to see more
 ConditionsComfort  
Time TempWeatherWind HumidityBarometerVisibility
7:00 am
Tue, Jan 17
63 °FBroken clouds.15 mph73%30.01 "HgN/A
6:30 am63 °FScattered clouds.15 mph68%29.98 "HgN/A
6:00 am63 °FOvercast.15 mph68%29.98 "HgN/A
5:30 am63 °FOvercast.16 mph68%29.98 "HgN/A
5:00 am63 °FPassing clouds.16 mph68%29.98 "HgN/A
4:30 am63 °FPassing clouds.15 mph73%29.98 "HgN/A
4:00 am63 °FPassing clouds.14 mph73%29.98 "HgN/A
3:30 am63 °FPassing clouds.13 mph68%29.98 "HgN/A
3:00 am63 °FPassing clouds.13 mph73%29.98 "HgN/A
2:30 am61 °FPassing clouds.13 mph72%29.98 "HgN/A
2:00 am63 °FPassing clouds.13 mph68%30.01 "HgN/A
1:30 am63 °FMild.15 mph68%30.01 "HgN/A
1:00 am63 °FPassing clouds.13 mph73%30.01 "HgN/A
12:30 am63 °FMild.15 mph68%30.01 "HgN/A
12:00 am63 °FPassing clouds.15 mph73%30.01 "HgN/A
11:30 pm
Mon, Jan 16
63 °FPassing clouds.13 mph73%30.01 "HgN/A
11:00 pm63 °FPassing clouds.15 mph73%30.01 "HgN/A
10:30 pm63 °FPassing clouds.15 mph73%30.01 "HgN/A
10:00 pm63 °FPassing clouds.15 mph73%30.01 "HgN/A
9:30 pm63 °FMild.14 mph73%30.01 "HgN/A
9:00 pm63 °FMild.15 mph68%29.98 "HgN/A
8:30 pm64 °FMild.18 mph64%29.98 "HgN/A
8:00 pm64 °FMild.18 mph64%29.98 "HgN/A
7:30 pm66 °FMild.20 mph56%29.98 "HgN/A
7:00 pm66 °FScattered clouds.20 mph60%29.95 "HgN/A
6:30 pm68 °FOvercast.20 mph64%29.95 "HgN/A
6:00 pm68 °FPassing clouds.20 mph60%29.95 "HgN/A
5:30 pm70 °FMild.20 mph53%29.95 "HgN/A
5:00 pm70 °FPassing clouds.21 mph53%29.95 "HgN/A
4:30 pm70 °FPassing clouds.18 mph53%29.95 "HgN/A
4:00 pm72 °FPartly sunny.18 mph53%29.95 "HgN/A
3:30 pm72 °FScattered clouds.18 mph53%29.98 "HgN/A
3:00 pm70 °FPartly sunny.18 mph53%29.98 "HgN/A
2:30 pm72 °FPassing clouds.18 mph50%29.98 "HgN/A
2:00 pm70 °FPassing clouds.20 mph50%29.98 "HgN/A
1:00 pm72 °FPassing clouds.17 mph50%29.98 "HgN/A
12:30 pm70 °FPassing clouds.18 mph50%29.95 "HgN/A
12:00 pm70 °FPassing clouds.20 mph53%29.95 "HgN/A
11:30 am68 °FMild.21 mph53%29.95 "HgN/A
11:00 am70 °FMild.20 mph50%29.95 "HgN/A
10:30 am68 °FPartly sunny.18 mph60%29.95 "HgN/A
10:00 am68 °FPartly sunny.18 mph64%29.95 "HgN/A
9:30 am68 °FPartly sunny.20 mph60%29.92 "HgN/A
9:00 am66 °FPartly sunny.18 mph68%29.92 "HgN/A
8:30 am66 °FPassing clouds.21 mph68%29.92 "HgN/A
8:00 am66 °FPassing clouds.18 mph73%29.89 "HgN/A
Weather by CustomWeather, © 2017

See weather overviewHow to use our weather pages